This is the latest recevied weather packets stored in our database for station/object W4SKW. If no packets are shown the sender has not sent any weather packets the latest 10 day(s).
| Time | Temp. | Humidity | Pressure | Rain* | Wind** | Luminosity | Snow |
|---|---|---|---|---|---|---|---|
| 1777597779 | 12.22° C | 85% | 1014.6 hPa | 0 mm | - | 0 W/m² | - |
| 1777597475 | 12.22° C | 84% | 1014.7 hPa | 0 mm | - | 0 W/m² | - |
| 1777597171 | 12.78° C | 85% | 1014.5 hPa | 0 mm | - | 0 W/m² | - |
| 1777596866 | 12.78° C | 85% | 1014.4 hPa | 0 mm | - | 0 W/m² | - |
| 1777596562 | 12.78° C | 85% | 1014.4 hPa | 0 mm | - | 0 W/m² | - |
| 1777596259 | 13.33° C | 83% | 1014.4 hPa | 0 mm | - | 0 W/m² | - |
| 1777595956 | 13.33° C | 83% | 1014.4 hPa | 0 mm | - | 0 W/m² | - |
| 1777595651 | 13.89° C | 82% | 1014.1 hPa | 0 mm | - | 1 W/m² | - |
| 1777595346 | 13.89° C | 81% | 1014 hPa | 0 mm | - | 1 W/m² | - |
| 1777595043 | 14.44° C | 79% | 1014.1 hPa | 0 mm | - | 5 W/m² | - |
| 1777594735 | 14.44° C | 79% | 1014.1 hPa | 0 mm | - | 5 W/m² | - |
| 1777594431 | 14.44° C | 79% | 1014.1 hPa | 0 mm | - | 7 W/m² | - |
| 1777594125 | 15° C | 79% | 1013.9 hPa | 0 mm | - | 10 W/m² | - |
| 1777593822 | 15° C | 77% | 1014 hPa | 0 mm | - | 12 W/m² | - |
| 1777593519 | 15.56° C | 73% | 1014 hPa | 0 mm | - | 20 W/m² | - |
| 1777593213 | 15.56° C | 73% | 1014 hPa | 0 mm | - | 20 W/m² | - |
| 1777592912 | 16.11° C | 74% | 1014 hPa | 0 mm | - | 24 W/m² | - |
| 1777592608 | 16.11° C | 74% | 1014.2 hPa | 0 mm | - | 27 W/m² | - |
| 1777592304 | 16.67° C | 71% | 1013.9 hPa | 0 mm | - | 34 W/m² | - |
| 1777592000 | 17.22° C | 66% | 1014 hPa | 0 mm | - | 43 W/m² | - |
| 1777591696 | 17.22° C | 65% | 1013.8 hPa | 0 mm | - | 49 W/m² | - |
| 1777591387 | 17.22° C | 72% | 1013.9 hPa | 0 mm | - | 54 W/m² | - |
| 1777591083 | 17.22° C | 71% | 1013.9 hPa | 0 mm | - | 55 W/m² | - |
| 1777590779 | 17.78° C | 69% | 1014 hPa | 0 mm | - | 57 W/m² | - |
| 1777590475 | 18.33° C | 53% | 1014 hPa | 0 mm | - | 50 W/m² | - |
* Rain latest hour (hover to see other rain measurements)
** Current wind speed in m/s (hover to see current wind gust speed)